Location: *
(43.0833°N, 13.0500°E)
Time: 03:55:48
(UTC+00:00)

Cosmos 1697 Rocket - Pass Details

Date: 15 November 2019
Orbit: 834 x 842 km, 71.0° (Epoch: 11 December)

Event Time Altitude Azimuth Distance (km) Brightness Sun altitude
Rises 17:29:53 0° 203° (SSW) 3,384 6.3 -19.3°
Reaches altitude 10° 17:32:19 10° 203° (SSW) 2,452 5.5 -19.7°
Maximum altitude 17:37:58 89° 294° (WNW) 847 2.6 -20.7°
Enters shadow 17:42:00 20° 24° (NNE) 1,853 4.2 -21.5°
